Location: Eastchurch
(51.4000°N, 0.8667°E)
Time: 00:30:21
(UTC+00:00)

MOS 1 Rocket - Pass Details

Date: 19 January 2026
Orbit: 608 x 815 km, 97.4° (Epoch: 17 February)

Event Time Altitude Azimuth Distance (km) Brightness Sun altitude
Rises 17:24:43 0° 167° (SSE) 3,282 6.9 -9.3°
Reaches altitude 10° 17:27:05 10° 169° (SSE) 2,336 6.1 -9.7°
Maximum altitude 17:32:16 81° 257° (WSW) 772 3.6 -10.4°
Drops below altitude 10° 17:37:13 10° 345° (NNW) 2,230 5.9 -11.2°
Sets 17:39:26 0° 347° (NNW) 3,123 6.6 -11.5°
